| time (UTC) | temp F | wind direction | speed MPH | gust MPH | rain 1hr in | rain 24hr in | rain mn in | humidity % | barometer mb |
| 20260902094024 | 50 | 20 | 0.0 | 0.0 | 0.00 | 0.00 | 0.00 | 99 | 1016.6 |
| 20260902093519 | 50 | 20 | 0.0 | 0.0 | 0.00 | 0.00 | 0.00 | 99 | 1016.8 |
| 20260902093018 | 50 | 23 | 0.0 | 0.0 | 0.00 | 0.00 | 0.00 | 99 | 1016.8 |
| 20260902092513 | 50 | 23 | 0.0 | 0.0 | 0.00 | 0.00 | 0.00 | 99 | 1016.9 |
| 20260902092008 | 50 | 22 | 0.0 | 0.0 | 0.00 | 0.00 | 0.00 | 99 | 1016.8 |
| 20260902091504 | 50 | 23 | 0.0 | 0.0 | 0.00 | 0.00 | 0.00 | 99 | 1016.9 |
| 20260902090959 | 50 | 23 | 0.0 | 0.0 | 0.00 | 0.00 | 0.00 | 99 | 1016.9 |
| 20260902090455 | 51 | 22 | 0.0 | 0.0 | 0.00 | 0.00 | 0.00 | 99 | 1016.9 |
| 20260902085954 | 51 | 21 | 0.0 | 0.0 | 0.00 | 0.00 | 0.00 | 99 | 1017.0 |
| 20260902085449 | 51 | 20 | 0.0 | 0.0 | 0.00 | 0.00 | 0.00 | 99 | 1017.0 |
| 20260902084944 | 51 | 111 | 0.0 | 0.0 | 0.00 | 0.00 | 0.00 | 99 | 1016.8 |
| 20260902084441 | 51 | 113 | 0.0 | 0.0 | 0.00 | 0.00 | 0.00 | 99 | 1016.9 |
| 20260902083937 | 51 | 112 | 0.0 | 0.0 | 0.00 | 0.00 | 0.00 | 99 | 1016.9 |
| 20260902083436 | 51 | 104 | 0.0 | 0.0 | 0.00 | 0.00 | 0.00 | 99 | 1017.0 |
| 20260902082931 | 51 | 100 | 1.0 | 3.0 | 0.00 | 0.00 | 0.00 | 99 | 1016.9 |
| 20260902082427 | 51 | 149 | 1.0 | 2.0 | 0.00 | 0.00 | 0.00 | 99 | 1017.0 |
| 20260902081924 | 51 | 125 | 0.0 | 0.0 | 0.00 | 0.00 | 0.00 | 99 | 1017.1 |
| 20260902081420 | 51 | 332 | 0.0 | 0.0 | 0.00 | 0.00 | 0.00 | 99 | 1017.1 |
| 20260902080920 | 51 | 332 | 0.0 | 0.0 | 0.00 | 0.00 | 0.00 | 99 | 1017.0 |
| 20260902080416 | 51 | 333 | 0.0 | 0.0 | 0.00 | 0.00 | 0.00 | 99 | 1017.2 |
| 20260902075915 | 51 | 333 | 0.0 | 0.0 | 0.00 | 0.00 | 0.00 | 99 | 1016.9 |
| 20260902075412 | 52 | 333 | 0.0 | 0.0 | 0.00 | 0.00 | 0.00 | 99 | 1017.1 |
| 20260902074907 | 52 | 332 | 0.0 | 0.0 | 0.00 | 0.00 | 0.00 | 99 | 1017.0 |
| 20260902074403 | 52 | 332 | 0.0 | 0.0 | 0.00 | 0.00 | 0.00 | 99 | 1017.0 |
| 20260902073857 | 52 | 334 | 0.0 | 0.0 | 0.00 | 0.00 | 0.00 | 99 | 1017.3 |
| 20260902073353 | 52 | 332 | 0.0 | 0.0 | 0.00 | 0.00 | 0.00 | 99 | 1017.6 |
| 20260902072849 | 52 | 332 | 0.0 | 0.0 | 0.00 | 0.00 | 0.00 | 99 | 1017.6 |
| 20260902072344 | 52 | 335 | 0.0 | 0.0 | 0.00 | 0.00 | 0.00 | 99 | 1017.4 |
| 20260902071841 | 52 | 332 | 0.0 | 0.0 | 0.00 | 0.00 | 0.00 | 99 | 1017.3 |
| 20260902071340 | 52 | 332 | 0.0 | 0.0 | 0.00 | 0.00 | 0.00 | 99 | 1017.7 |
| 20260902070838 | 52 | 64 | 0.0 | 0.0 | 0.00 | 0.00 | 0.00 | 99 | 1017.6 |
| 20260902070338 | 52 | 64 | 0.0 | 0.0 | 0.00 | 0.00 | 0.00 | 99 | 1017.4 |
| 20260902065836 | 53 | 64 | 0.0 | 0.0 | 0.00 | 0.00 | 0.00 | 99 | 1017.4 |
| 20260902065332 | 53 | 314 | 0.0 | 1.0 | 0.00 | 0.00 | 0.00 | 99 | 1017.7 |
| 20260902064827 | 53 | 330 | 1.0 | 2.0 | 0.00 | 0.00 | 0.00 | 99 | 1017.7 |
| 20260902064323 | 53 | 350 | 1.0 | 2.0 | 0.00 | 0.00 | 0.00 | 99 | 1017.7 |
| 20260902063818 | 53 | 38 | 0.0 | 1.0 | 0.00 | 0.00 | 0.00 | 99 | 1017.8 |
| 20260902063312 | 53 | 331 | 0.0 | 2.0 | 0.00 | 0.00 | 0.00 | 99 | 1017.8 |
| 20260902062807 | 53 | 22 | 0.0 | 1.0 | 0.00 | 0.00 | 0.00 | 99 | 1017.7 |
| 20260902062305 | 53 | 95 | 0.0 | 1.0 | 0.00 | 0.00 | 0.00 | 99 | 1018.0 |
| 20260902061801 | 53 | 107 | 0.0 | 0.0 | 0.00 | 0.00 | 0.00 | 99 | 1018.1 |
| 20260902061256 | 54 | 117 | 0.0 | 1.0 | 0.00 | 0.00 | 0.00 | 99 | 1018.0 |
| 20260902060754 | 54 | 98 | 0.0 | 1.0 | 0.00 | 0.00 | 0.00 | 99 | 1017.9 |
| 20260902060248 | 53 | 220 | 0.0 | 0.0 | 0.00 | 0.00 | 0.00 | 99 | 1017.9 |
| 20260902055744 | 54 | 209 | 0.0 | 0.0 | 0.00 | 0.10 | 0.10 | 99 | 1018.1 |
| 20260902055241 | 54 | 170 | 1.0 | 2.0 | 0.00 | 0.10 | 0.10 | 99 | 1018.1 |
| 20260902054741 | 54 | 161 | 0.0 | 0.0 | 0.00 | 0.10 | 0.10 | 99 | 1018.1 |
| 20260902054236 | 54 | 164 | 0.0 | 1.0 | 0.00 | 0.10 | 0.10 | 99 | 1017.9 |
| 20260902053732 | 54 | 136 | 0.0 | 0.0 | 0.00 | 0.10 | 0.10 | 99 | 1018.1 |
| 20260902053231 | 54 | 128 | 0.0 | 0.0 | 0.00 | 0.10 | 0.10 | 99 | 1018.0 |
| 20260902052730 | 54 | 94 | 0.0 | 0.0 | 0.00 | 0.10 | 0.10 | 99 | 1018.1 |
| 20260902052226 | 54 | 278 | 0.0 | 0.0 | 0.00 | 0.10 | 0.10 | 99 | 1018.1 |
| 20260902051725 | 54 | 277 | 0.0 | 0.0 | 0.00 | 0.10 | 0.10 | 99 | 1018.0 |
| 20260902051220 | 54 | 277 | 0.0 | 1.0 | 0.00 | 0.10 | 0.10 | 99 | 1017.8 |
| 20260902050715 | 54 | 43 | 0.0 | 0.0 | 0.00 | 0.10 | 0.10 | 99 | 1017.7 |
| 20260902050210 | 55 | 45 | 0.0 | 0.0 | 0.00 | 0.10 | 0.10 | 99 | 1017.7 |
| 20260902045710 | 55 | 34 | 0.0 | 0.0 | 0.00 | 0.10 | 0.10 | 99 | 1017.6 |
| 20260902045207 | 55 | 312 | 2.0 | 2.0 | 0.00 | 0.10 | 0.10 | 99 | 1017.6 |
| 20260902044701 | 55 | 275 | 2.0 | 2.0 | 0.00 | 0.10 | 0.10 | 99 | 1017.7 |
| 20260902044158 | 55 | 326 | 1.0 | 1.0 | 0.00 | 0.10 | 0.10 | 99 | 1017.7 |
| 20260902043652 | 55 | 51 | 0.0 | 3.0 | 0.00 | 0.10 | 0.10 | 99 | 1018.0 |
| 20260902043148 | 55 | 16 | 1.0 | 2.0 | 0.00 | 0.10 | 0.10 | 98 | 1018.1 |
| 20260902042647 | 55 | 110 | 0.0 | 0.0 | 0.00 | 0.10 | 0.10 | 98 | 1018.2 |
| 20260902042142 | 55 | 127 | 0.0 | 0.0 | 0.00 | 0.10 | 0.10 | 98 | 1018.3 |
| 20260902041642 | 55 | 163 | 0.0 | 0.0 | 0.00 | 0.10 | 0.10 | 98 | 1018.6 |
| 20260902041137 | 55 | 90 | 0.0 | 1.0 | 0.00 | 0.10 | 0.10 | 98 | 1018.7 |
| 20260902040636 | 55 | 217 | 2.0 | 3.0 | 0.00 | 0.10 | 0.10 | 98 | 1018.7 |
| 20260902040132 | 55 | 203 | 3.0 | 6.0 | 0.00 | 0.10 | 0.10 | 98 | 1018.8 |
| 20260902035630 | 56 | 227 | 3.0 | 3.0 | 0.00 | 0.10 | 0.10 | 99 | 1018.5 |
| 20260902035126 | 56 | 68 | 0.0 | 1.0 | 0.00 | 0.10 | 0.10 | 98 | 1018.5 |
| 20260902034625 | 56 | 14 | 0.0 | 1.0 | 0.00 | 0.10 | 0.10 | 98 | 1018.3 |
| 20260902034125 | 56 | 52 | 1.0 | 1.0 | 0.00 | 0.10 | 0.10 | 98 | 1018.5 |
| 20260902033624 | 56 | 216 | 1.0 | 1.0 | 0.00 | 0.10 | 0.10 | 98 | 1018.7 |
| 20260902033119 | 56 | 203 | 2.0 | 2.0 | 0.00 | 0.10 | 0.10 | 98 | 1018.7 |
| 20260902032618 | 56 | 191 | 1.0 | 3.0 | 0.00 | 0.10 | 0.10 | 98 | 1018.9 |
| 20260902032112 | 56 | 235 | 1.0 | 2.0 | 0.00 | 0.10 | 0.10 | 98 | 1019.0 |
| 20260902031606 | 56 | 172 | 2.0 | 5.0 | 0.00 | 0.10 | 0.10 | 98 | 1018.9 |
| 20260902031103 | 56 | 133 | 1.0 | 1.0 | 0.00 | 0.10 | 0.10 | 98 | 1018.8 |
| 20260902030558 | 56 | 176 | 1.0 | 5.0 | 0.00 | 0.10 | 0.10 | 98 | 1018.7 |
| 20260902030057 | 57 | 289 | 0.0 | 0.0 | 0.00 | 0.10 | 0.10 | 98 | 1018.6 |
| 20260902025557 | 57 | 290 | 0.0 | 1.0 | 0.00 | 0.10 | 0.10 | 98 | 1018.5 |
| 20260902025047 | 57 | 207 | 0.0 | 2.0 | 0.00 | 0.10 | 0.10 | 98 | 1018.7 |
| 20260902024543 | 57 | 128 | 0.0 | 1.0 | 0.00 | 0.10 | 0.10 | 98 | 1018.8 |
| 20260902024043 | 57 | 136 | 1.0 | 1.0 | 0.05 | 0.10 | 0.10 | 97 | 1018.6 |
| 20260902023539 | 57 | 328 | 0.0 | 1.0 | 0.05 | 0.10 | 0.10 | 97 | 1018.8 |
| 20260902023033 | 57 | 17 | 1.0 | 1.0 | 0.00 | 0.09 | 0.09 | 97 | 1018.5 |
| 20260902022528 | 57 | 83 | 0.0 | 0.0 | 0.07 | 0.09 | 0.09 | 97 | 1019.0 |
| 20260902022024 | 57 | 70 | 0.0 | 1.0 | 0.07 | 0.09 | 0.09 | 96 | 1018.9 |
| 20260902021519 | 57 | 51 | 1.0 | 2.0 | 0.12 | 0.08 | 0.08 | 95 | 1019.0 |
| 20260902021014 | 57 | 180 | 1.0 | 2.0 | 0.12 | 0.07 | 0.07 | 95 | 1019.0 |
| 20260902020510 | 57 | 212 | 2.0 | 3.0 | 0.12 | 0.06 | 0.06 | 94 | 1019.5 |
| 20260902020006 | 58 | 166 | 1.0 | 2.0 | 0.12 | 0.05 | 0.05 | 92 | 1019.3 |
| 20260902015501 | 59 | 217 | 0.0 | 3.0 | 0.12 | 0.04 | 0.04 | 89 | 1019.3 |
| 20260902014956 | 60 | 232 | 1.0 | 2.0 | 0.17 | 0.03 | 0.03 | 85 | 1019.6 |
| 20260902014452 | 63 | 163 | 3.0 | 8.0 | 0.05 | 0.01 | 0.01 | 73 | 1019.5 |
| 20260902013953 | 69 | 234 | 5.0 | 21.0 | 0.00 | 0.00 | 0.00 | 55 | 1019.6 |
| 20260902013447 | 69 | 195 | 7.0 | 11.0 | 0.00 | 0.00 | 0.00 | 48 | 1019.1 |
| 20260902012943 | 71 | 104 | 4.0 | 10.0 | 0.00 | 0.00 | 0.00 | 44 | 1018.8 |
| 20260902012438 | 71 | 247 | 4.0 | 6.0 | 0.00 | 0.00 | 0.00 | 41 | 1018.7 |
| 20260902011933 | 71 | 179 | 2.0 | 6.0 | 0.00 | 0.00 | 0.00 | 40 | 1018.7 |
| 20260902011429 | 72 | 182 | 3.0 | 13.0 | 0.00 | 0.00 | 0.00 | 39 | 1018.5 |
| 20260902010928 | 72 | 127 | 3.0 | 6.0 | 0.00 | 0.00 | 0.00 | 39 | 1018.1 |
| 20260902010423 | 72 | 181 | 3.0 | 13.0 | 0.00 | 0.00 | 0.00 | 39 | 1017.9 |
| 20260902005922 | 73 | 167 | 5.0 | 11.0 | 0.00 | 0.00 | 0.00 | 38 | 1017.4 |
| 20260902005421 | 73 | 139 | 5.0 | 9.0 | 0.00 | 0.00 | 0.00 | 38 | 1017.3 |
| 20260902004918 | 74 | 129 | 4.0 | 7.0 | 0.00 | 0.00 | 0.00 | 38 | 1016.9 |
| 20260902004417 | 74 | 175 | 2.0 | 5.0 | 0.00 | 0.00 | 0.00 | 37 | 1016.6 |
| 20260902003913 | 74 | 126 | 3.0 | 5.0 | 0.00 | 0.00 | 0.00 | 37 | 1016.7 |
| 20260902003412 | 74 | 156 | 2.0 | 6.0 | 0.00 | 0.00 | 0.00 | 37 | 1016.6 |
| 20260902002909 | 74 | 115 | 1.0 | 10.0 | 0.00 | 0.00 | 0.00 | 36 | 1016.0 |
| 20260902002408 | 75 | 186 | 3.0 | 6.0 | 0.00 | 0.00 | 0.00 | 36 | 1016.0 |
| 20260902001903 | 75 | 44 | 2.0 | 5.0 | 0.00 | 0.00 | 0.00 | 36 | 1016.1 |
| 20260902001358 | 76 | 61 | 3.0 | 10.0 | 0.00 | 0.00 | 0.00 | 35 | 1015.9 |
| 20260902000853 | 77 | 349 | 3.0 | 9.0 | 0.00 | 0.00 | 0.00 | 34 | 1015.7 |
| 20260902000348 | 77 | 8 | 5.0 | 6.0 | 0.00 | 0.00 | 0.00 | 32 | 1015.6 |
| 20260901235843 | 78 | 156 | 3.0 | 14.0 | 0.00 | 0.00 | 0.00 | 31 | 1015.3 |
| 20260901235342 | 78 | 206 | 4.0 | 6.0 | 0.00 | 0.00 | 0.00 | 30 | 1015.2 |
| 20260901234838 | 79 | 317 | 6.0 | 11.0 | 0.00 | 0.00 | 0.00 | 29 | 1015.2 |
| 20260901234331 | 80 | 347 | 2.0 | 2.0 | 0.00 | 0.00 | 0.00 | 29 | 1015.2 |
| 20260901233827 | 80 | 46 | 0.0 | 1.0 | 0.00 | 0.00 | 0.00 | 29 | 1015.1 |
| 20260901233322 | 81 | 186 | 1.0 | 3.0 | 0.00 | 0.00 | 0.00 | 28 | 1015.1 |
| 20260901232818 | 81 | 64 | 0.0 | 5.0 | 0.00 | 0.00 | 0.00 | 28 | 1014.6 |
| 20260901232312 | 81 | 280 | 2.0 | 2.0 | 0.00 | 0.00 | 0.00 | 28 | 1014.3 |
| 20260901231809 | 81 | 309 | 5.0 | 6.0 | 0.00 | 0.00 | 0.00 | 28 | 1014.0 |
| 20260901231305 | 82 | 357 | 5.0 | 9.0 | 0.00 | 0.00 | 0.00 | 27 | 1014.2 |
| 20260901230801 | 82 | 325 | 3.0 | 7.0 | 0.00 | 0.00 | 0.00 | 27 | 1014.1 |
| 20260901230254 | 82 | 288 | 7.0 | 8.0 | 0.00 | 0.00 | 0.00 | 27 | 1014.0 |
| 20260901225750 | 82 | 14 | 3.0 | 9.0 | 0.00 | 0.00 | 0.00 | 26 | 1013.9 |
| 20260901225244 | 83 | 16 | 3.0 | 7.0 | 0.00 | 0.00 | 0.00 | 26 | 1013.9 |
| 20260901224740 | 82 | 28 | 3.0 | 6.0 | 0.00 | 0.00 | 0.00 | 26 | 1013.7 |
| 20260901224236 | 82 | 41 | 2.0 | 10.0 | 0.00 | 0.00 | 0.00 | 25 | 1013.9 |
| 20260901223732 | 82 | 14 | 2.0 | 6.0 | 0.00 | 0.00 | 0.00 | 25 | 1013.9 |
| 20260901223226 | 82 | 14 | 4.0 | 13.0 | 0.00 | 0.00 | 0.00 | 25 | 1013.9 |
| 20260901222723 | 82 | 32 | 6.0 | 13.0 | 0.00 | 0.00 | 0.00 | 26 | 1013.9 |
| 20260901222219 | 82 | 26 | 8.0 | 14.0 | 0.00 | 0.00 | 0.00 | 26 | 1014.0 |
| 20260901221714 | 83 | 61 | 7.0 | 10.0 | 0.00 | 0.00 | 0.00 | 26 | 1013.8 |
| 20260901221210 | 83 | 38 | 4.0 | 9.0 | 0.00 | 0.00 | 0.00 | 25 | 1013.9 |
| 20260901220709 | 83 | 340 | 4.0 | 9.0 | 0.00 | 0.00 | 0.00 | 25 | 1014.0 |
| 20260901220209 | 84 | 304 | 8.0 | 10.0 | 0.00 | 0.00 | 0.00 | 25 | 1013.9 |
| 20260901215708 | 84 | 105 | 4.0 | 9.0 | 0.00 | 0.00 | 0.00 | 25 | 1013.9 |
| 20260901215208 | 84 | 28 | 1.0 | 5.0 | 0.00 | 0.00 | 0.00 | 25 | 1013.7 |
| 20260901214706 | 82 | 41 | 0.0 | 5.0 | 0.00 | 0.00 | 0.00 | 26 | 1013.8 |
| 20260901214201 | 82 | 306 | 5.0 | 6.0 | 0.00 | 0.00 | 0.00 | 27 | 1013.7 |
| 20260901213700 | 82 | 337 | 2.0 | 5.0 | 0.00 | 0.00 | 0.00 | 27 | 1013.7 |
| 20260901213155 | 83 | 312 | 7.0 | 10.0 | 0.00 | 0.00 | 0.00 | 27 | 1013.9 |
| 20260901212655 | 83 | 299 | 4.0 | 7.0 | 0.00 | 0.00 | 0.00 | 27 | 1013.9 |
| 20260901212151 | 83 | 356 | 5.0 | 7.0 | 0.00 | 0.00 | 0.00 | 27 | 1014.0 |
| 20260901211645 | 82 | 311 | 8.0 | 9.0 | 0.00 | 0.00 | 0.00 | 28 | 1014.3 |
| 20260901211142 | 82 | 332 | 4.0 | 7.0 | 0.00 | 0.00 | 0.00 | 28 | 1014.1 |
| 20260901210637 | 82 | 338 | 3.0 | 7.0 | 0.00 | 0.00 | 0.00 | 28 | 1014.4 |
| 20260901210133 | 81 | 331 | 2.0 | 6.0 | 0.00 | 0.00 | 0.00 | 29 | 1014.7 |
| 20260901205629 | 82 | 28 | 2.0 | 5.0 | 0.00 | 0.00 | 0.00 | 28 | 1014.4 |
| 20260901205128 | 81 | 4 | 4.0 | 6.0 | 0.00 | 0.00 | 0.00 | 29 | 1014.4 |
| 20260901204624 | 81 | 322 | 2.0 | 6.0 | 0.00 | 0.00 | 0.00 | 30 | 1014.6 |
| 20260901204119 | 80 | 347 | 5.0 | 6.0 | 0.00 | 0.00 | 0.00 | 29 | 1014.7 |
| 20260901203614 | 80 | 321 | 2.0 | 6.0 | 0.00 | 0.00 | 0.00 | 31 | 1014.7 |
| 20260901203109 | 80 | 321 | 0.0 | 5.0 | 0.00 | 0.00 | 0.00 | 31 | 1014.9 |
| 20260901202608 | 79 | 327 | 5.0 | 6.0 | 0.00 | 0.00 | 0.00 | 31 | 1014.8 |
| 20260901202105 | 78 | 275 | 1.0 | 5.0 | 0.00 | 0.00 | 0.00 | 31 | 1015.0 |
| 20260901201600 | 78 | 312 | 4.0 | 5.0 | 0.00 | 0.00 | 0.00 | 31 | 1015.0 |
| 20260901201059 | 79 | 319 | 5.0 | 7.0 | 0.00 | 0.00 | 0.00 | 30 | 1014.9 |
| 20260901200559 | 79 | 5 | 4.0 | 8.0 | 0.00 | 0.00 | 0.00 | 31 | 1015.2 |
| 20260901200054 | 78 | 29 | 4.0 | 8.0 | 0.00 | 0.00 | 0.00 | 31 | 1015.3 |
| 20260901195552 | 78 | 359 | 2.0 | 6.0 | 0.00 | 0.00 | 0.00 | 32 | 1015.4 |
| 20260901195051 | 78 | 292 | 5.0 | 7.0 | 0.00 | 0.00 | 0.00 | 32 | 1015.6 |
| 20260901194547 | 77 | 324 | 3.0 | 6.0 | 0.00 | 0.00 | 0.00 | 32 | 1015.7 |
| 20260901194042 | 77 | 294 | 2.0 | 2.0 | 0.00 | 0.00 | 0.00 | 33 | 1015.7 |
| 20260901193541 | 77 | 42 | 0.0 | 7.0 | 0.00 | 0.00 | 0.00 | 33 | 1015.7 |
| 20260901193037 | 76 | 242 | 5.0 | 7.0 | 0.00 | 0.00 | 0.00 | 33 | 1015.8 |
| 20260901192531 | 76 | 314 | 3.0 | 3.0 | 0.00 | 0.00 | 0.00 | 34 | 1016.0 |
| 20260901192027 | 75 | 315 | 2.0 | 5.0 | 0.00 | 0.00 | 0.00 | 35 | 1016.0 |
| 20260901191523 | 75 | 7 | 2.0 | 3.0 | 0.00 | 0.00 | 0.00 | 34 | 1016.2 |
| 20260901191019 | 75 | 347 | 1.0 | 3.0 | 0.00 | 0.00 | 0.00 | 34 | 1016.2 |
| 20260901190514 | 74 | 343 | 1.0 | 5.0 | 0.00 | 0.00 | 0.00 | 34 | 1016.2 |
| 20260901190013 | 74 | 311 | 3.0 | 6.0 | 0.00 | 0.00 | 0.00 | 35 | 1016.3 |
| 20260901185507 | 73 | 351 | 3.0 | 5.0 | 0.00 | 0.00 | 0.00 | 35 | 1016.4 |
| 20260901185006 | 73 | 301 | 2.0 | 7.0 | 0.00 | 0.00 | 0.00 | 35 | 1016.3 |
| 20260901184502 | 75 | 323 | 4.0 | 5.0 | 0.00 | 0.00 | 0.00 | 34 | 1016.7 |
| 20260901183957 | 75 | 315 | 3.0 | 6.0 | 0.00 | 0.00 | 0.00 | 33 | 1016.7 |
| 20260901183456 | 73 | 359 | 2.0 | 6.0 | 0.00 | 0.00 | 0.00 | 35 | 1016.8 |
| 20260901182952 | 73 | 330 | 4.0 | 5.0 | 0.00 | 0.00 | 0.00 | 34 | 1017.0 |
| 20260901182448 | 74 | 323 | 3.0 | 7.0 | 0.00 | 0.00 | 0.00 | 34 | 1016.8 |
| 20260901181948 | 73 | 15 | 2.0 | 5.0 | 0.00 | 0.00 | 0.00 | 36 | 1017.0 |
| 20260901181443 | 72 | 15 | 3.0 | 6.0 | 0.00 | 0.00 | 0.00 | 35 | 1017.1 |
| 20260901180942 | 72 | 336 | 7.0 | 8.0 | 0.00 | 0.00 | 0.00 | 37 | 1017.2 |
| 20260901180441 | 72 | 328 | 2.0 | 3.0 | 0.00 | 0.00 | 0.00 | 36 | 1017.2 |
| 20260901175939 | 71 | 19 | 4.0 | 6.0 | 0.00 | 0.00 | 0.00 | 36 | 1017.4 |
| 20260901175435 | 71 | 237 | 0.0 | 3.0 | 0.00 | 0.00 | 0.00 | 37 | 1017.4 |
| 20260901174930 | 70 | 31 | 3.0 | 6.0 | 0.00 | 0.00 | 0.00 | 37 | 1017.6 |
| 20260901174425 | 69 | 314 | 3.0 | 5.0 | 0.00 | 0.00 | 0.00 | 38 | 1017.7 |
| 20260901173921 | 69 | 332 | 2.0 | 8.0 | 0.00 | 0.00 | 0.00 | 38 | 1017.7 |
| 20260901173416 | 68 | 20 | 4.0 | 7.0 | 0.00 | 0.00 | 0.00 | 39 | 1017.8 |
| 20260901172912 | 69 | 26 | 2.0 | 3.0 | 0.00 | 0.00 | 0.00 | 38 | 1017.9 |
| 20260901172407 | 67 | 314 | 4.0 | 6.0 | 0.00 | 0.00 | 0.00 | 40 | 1018.0 |
| 20260901171905 | 67 | 323 | 3.0 | 5.0 | 0.00 | 0.00 | 0.00 | 41 | 1018.1 |
| 20260901171403 | 66 | 27 | 1.0 | 7.0 | 0.00 | 0.00 | 0.00 | 41 | 1018.2 |
| 20260901170902 | 66 | 311 | 3.0 | 3.0 | 0.00 | 0.00 | 0.00 | 42 | 1018.5 |
| 20260901170358 | 66 | 56 | 1.0 | 7.0 | 0.00 | 0.00 | 0.00 | 42 | 1018.5 |
| 20260901165852 | 65 | 315 | 5.0 | 6.0 | 0.00 | 0.00 | 0.00 | 43 | 1018.3 |
| 20260901165351 | 64 | 308 | 3.0 | 5.0 | 0.00 | 0.00 | 0.00 | 44 | 1018.5 |
| 20260901164848 | 64 | 16 | 2.0 | 3.0 | 0.00 | 0.00 | 0.00 | 44 | 1018.7 |
| 20260901164344 | 63 | 2 | 3.0 | 5.0 | 0.00 | 0.00 | 0.00 | 45 | 1018.7 |
| 20260901163843 | 63 | 320 | 6.0 | 6.0 | 0.00 | 0.00 | 0.00 | 45 | 1018.7 |
| 20260901163338 | 62 | 14 | 5.0 | 6.0 | 0.00 | 0.00 | 0.00 | 47 | 1018.7 |
| 20260901162828 | 62 | 312 | 1.0 | 5.0 | 0.00 | 0.00 | 0.00 | 47 | 1018.7 |
| 20260901162326 | 62 | 51 | 2.0 | 3.0 | 0.00 | 0.00 | 0.00 | 48 | 1018.8 |
| 20260901161820 | 61 | 25 | 1.0 | 5.0 | 0.00 | 0.00 | 0.00 | 49 | 1019.0 |
| 20260901161315 | 61 | 30 | 3.0 | 3.0 | 0.00 | 0.00 | 0.00 | 48 | 1018.8 |
| 20260901160810 | 60 | 18 | 2.0 | 2.0 | 0.00 | 0.00 | 0.00 | 50 | 1018.9 |
| 20260901160307 | 60 | 46 | 2.0 | 2.0 | 0.00 | 0.00 | 0.00 | 50 | 1019.1 |
| 20260901155805 | 59 | 18 | 0.0 | 0.0 | 0.00 | 0.00 | 0.00 | 52 | 1019.1 |
| 20260901155300 | 59 | 91 | 0.0 | 0.0 | 0.00 | 0.00 | 0.00 | 51 | 1019.0 |
| 20260901154756 | 58 | 89 | 0.0 | 0.0 | 0.00 | 0.00 | 0.00 | 52 | 1019.2 |
| 20260901154255 | 57 | 60 | 0.0 | 0.0 | 0.00 | 0.00 | 0.00 | 57 | 1019.2 |
| 20260901153750 | 55 | 67 | 0.0 | 0.0 | 0.00 | 0.00 | 0.00 | 58 | 1019.3 |
| 20260901153245 | 56 | 130 | 0.0 | 0.0 | 0.00 | 0.00 | 0.00 | 56 | 1019.2 |
| 20260901152744 | 54 | 114 | 0.0 | 0.0 | 0.00 | 0.00 | 0.00 | 60 | 1019.3 |
| 20260901152243 | 54 | 150 | 0.0 | 0.0 | 0.00 | 0.00 | 0.00 | 61 | 1019.6 |
| 20260901151738 | 53 | 152 | 0.0 | 0.0 | 0.00 | 0.00 | 0.00 | 62 | 1019.6 |
| 20260901151233 | 52 | 154 | 0.0 | 0.0 | 0.00 | 0.00 | 0.00 | 65 | 1019.6 |
| 20260901150732 | 51 | 154 | 0.0 | 0.0 | 0.00 | 0.00 | 0.00 | 66 | 1019.6 |
| 20260901150231 | 51 | 170 | 0.0 | 0.0 | 0.00 | 0.00 | 0.00 | 67 | 1019.7 |
| 20260901145729 | 48 | 171 | 0.0 | 0.0 | 0.00 | 0.00 | 0.00 | 69 | 1019.7 |
| 20260901145228 | 46 | 171 | 0.0 | 0.0 | 0.00 | 0.00 | 0.00 | 75 | 1019.7 |
| 20260901144724 | 44 | 174 | 0.0 | 0.0 | 0.00 | 0.00 | 0.00 | 79 | 1019.7 |
| 20260901144219 | 42 | 174 | 0.0 | 0.0 | 0.00 | 0.00 | 0.00 | 83 | 1019.7 |
| 20260901143714 | 40 | 174 | 0.0 | 0.0 | 0.00 | 0.00 | 0.00 | 85 | 1019.8 |
| 20260901143211 | 38 | 175 | 0.0 | 0.0 | 0.00 | 0.00 | 0.00 | 92 | 1020.0 |
| 20260901142707 | 37 | 175 | 0.0 | 0.0 | 0.00 | 0.00 | 0.00 | 93 | 1019.9 |
| 20260901142205 | 36 | 175 | 0.0 | 0.0 | 0.00 | 0.00 | 0.00 | 93 | 1019.9 |
| 20260901141700 | 36 | 175 | 0.0 | 0.0 | 0.00 | 0.00 | 0.00 | 93 | 1019.8 |
| 20260901141155 | 36 | 175 | 0.0 | 0.0 | 0.00 | 0.00 | 0.00 | 94 | 1019.9 |
| 20260901140654 | 36 | 175 | 0.0 | 0.0 | 0.00 | 0.00 | 0.00 | 94 | 1020.0 |
| 20260901140153 | 36 | 175 | 0.0 | 0.0 | 0.00 | 0.00 | 0.00 | 95 | 1020.1 |
| 20260901135648 | 36 | 175 | 0.0 | 0.0 | 0.00 | 0.00 | 0.00 | 95 | 1019.9 |
| 20260901135143 | 36 | 175 | 0.0 | 0.0 | 0.00 | 0.00 | 0.00 | 95 | 1019.9 |
| 20260901134638 | 35 | 175 | 0.0 | 0.0 | 0.00 | 0.00 | 0.00 | 95 | 1019.6 |
| 20260901134133 | 35 | 175 | 0.0 | 0.0 | 0.00 | 0.00 | 0.00 | 94 | 1019.6 |
| 20260901133632 | 35 | 175 | 0.0 | 0.0 | 0.00 | 0.00 | 0.00 | 95 | 1019.7 |
| 20260901133131 | 36 | 175 | 0.0 | 0.0 | 0.00 | 0.00 | 0.00 | 95 | 1019.8 |
| 20260901132625 | 35 | 175 | 0.0 | 0.0 | 0.00 | 0.00 | 0.00 | 95 | 1019.6 |
| 20260901132125 | 36 | 175 | 0.0 | 0.0 | 0.00 | 0.00 | 0.00 | 95 | 1019.5 |
| 20260901131625 | 35 | 175 | 0.0 | 0.0 | 0.00 | 0.00 | 0.00 | 95 | 1019.6 |
| 20260901131120 | 35 | 175 | 0.0 | 0.0 | 0.00 | 0.00 | 0.00 | 94 | 1019.5 |
| 20260901130615 | 36 | 175 | 0.0 | 0.0 | 0.00 | 0.00 | 0.00 | 94 | 1019.7 |
| 20260901130114 | 36 | 176 | 0.0 | 0.0 | 0.00 | 0.00 | 0.00 | 94 | 1019.6 |
| 20260901125612 | 36 | 175 | 0.0 | 0.0 | 0.00 | 0.00 | 0.00 | 94 | 1019.6 |
| 20260901125108 | 36 | 175 | 0.0 | 0.0 | 0.00 | 0.00 | 0.00 | 93 | 1019.3 |
| 20260901124607 | 36 | 176 | 0.0 | 0.0 | 0.00 | 0.00 | 0.00 | 93 | 1019.3 |
| 20260901124102 | 36 | 176 | 0.0 | 0.0 | 0.00 | 0.00 | 0.00 | 93 | 1019.3 |
| 20260901123557 | 36 | 175 | 0.0 | 0.0 | 0.00 | 0.00 | 0.00 | 93 | 1019.3 |
| 20260901123056 | 36 | 175 | 0.0 | 0.0 | 0.00 | 0.00 | 0.00 | 92 | 1019.3 |
| 20260901122555 | 36 | 175 | 0.0 | 0.0 | 0.00 | 0.00 | 0.00 | 93 | 1019.3 |
| 20260901122050 | 36 | 175 | 0.0 | 0.0 | 0.00 | 0.00 | 0.00 | 92 | 1019.5 |
| 20260901121549 | 36 | 174 | 0.0 | 0.0 | 0.00 | 0.00 | 0.00 | 93 | 1019.1 |
| 20260901121044 | 36 | 174 | 0.0 | 0.0 | 0.00 | 0.00 | 0.00 | 93 | 1019.3 |
| 20260901120544 | 36 | 174 | 0.0 | 0.0 | 0.00 | 0.00 | 0.00 | 92 | 1019.3 |
| 20260901120040 | 37 | 174 | 0.0 | 0.0 | 0.00 | 0.00 | 0.00 | 92 | 1019.3 |
| 20260901115535 | 37 | 174 | 0.0 | 0.0 | 0.00 | 0.00 | 0.00 | 92 | 1019.5 |
| 20260901115032 | 37 | 174 | 0.0 | 0.0 | 0.00 | 0.00 | 0.00 | 91 | 1019.2 |
| 20260901114528 | 37 | 174 | 0.0 | 0.0 | 0.00 | 0.00 | 0.00 | 91 | 1019.2 |
| 20260901114026 | 37 | 174 | 0.0 | 0.0 | 0.00 | 0.00 | 0.00 | 91 | 1019.3 |
| 20260901113525 | 37 | 174 | 0.0 | 0.0 | 0.00 | 0.00 | 0.00 | 91 | 1019.0 |
| 20260901113021 | 37 | 174 | 0.0 | 0.0 | 0.00 | 0.00 | 0.00 | 91 | 1019.2 |
| 20260901112515 | 37 | 174 | 0.0 | 0.0 | 0.00 | 0.00 | 0.00 | 91 | 1019.5 |
| 20260901112011 | 38 | 174 | 0.0 | 0.0 | 0.00 | 0.00 | 0.00 | 91 | 1019.2 |
| 20260901111509 | 38 | 174 | 0.0 | 0.0 | 0.00 | 0.00 | 0.00 | 91 | 1019.2 |
| 20260901111008 | 38 | 174 | 0.0 | 0.0 | 0.00 | 0.00 | 0.00 | 90 | 1019.1 |
| 20260901110504 | 38 | 174 | 0.0 | 0.0 | 0.00 | 0.00 | 0.00 | 89 | 1019.2 |
| 20260901105959 | 38 | 174 | 0.0 | 0.0 | 0.00 | 0.00 | 0.00 | 89 | 1019.1 |
| 20260901105455 | 38 | 174 | 0.0 | 0.0 | 0.00 | 0.00 | 0.00 | 90 | 1019.2 |
| 20260901104949 | 38 | 174 | 0.0 | 0.0 | 0.00 | 0.00 | 0.00 | 89 | 1019.2 |
| 20260901104445 | 38 | 174 | 0.0 | 0.0 | 0.00 | 0.00 | 0.00 | 89 | 1019.1 |
| 20260901103940 | 39 | 174 | 0.0 | 0.0 | 0.00 | 0.00 | 0.00 | 88 | 1019.2 |
| 20260901103440 | 39 | 174 | 0.0 | 0.0 | 0.00 | 0.00 | 0.00 | 88 | 1019.0 |
| 20260901102935 | 39 | 174 | 0.0 | 0.0 | 0.00 | 0.00 | 0.00 | 88 | 1019.0 |
| 20260901102430 | 39 | 174 | 0.0 | 0.0 | 0.00 | 0.00 | 0.00 | 87 | 1019.2 |
| 20260901101925 | 39 | 174 | 0.0 | 0.0 | 0.00 | 0.00 | 0.00 | 87 | 1018.9 |
| 20260901101420 | 39 | 174 | 0.0 | 0.0 | 0.00 | 0.00 | 0.00 | 87 | 1019.0 |
| 20260901100920 | 39 | 174 | 0.0 | 0.0 | 0.00 | 0.00 | 0.00 | 87 | 1019.1 |
| 20260901100415 | 39 | 174 | 0.0 | 0.0 | 0.00 | 0.00 | 0.00 | 86 | 1019.0 |
| 20260901095914 | 40 | 174 | 0.0 | 0.0 | 0.00 | 0.00 | 0.00 | 86 | 1019.0 |
| 20260901095413 | 40 | 174 | 0.0 | 0.0 | 0.00 | 0.00 | 0.00 | 86 | 1019.1 |
| 20260901094911 | 39 | 174 | 0.0 | 0.0 | 0.00 | 0.00 | 0.00 | 86 | 1019.1 |
| 20260901094406 | 40 | 174 | 0.0 | 0.0 | 0.00 | 0.00 | 0.00 | 86 | 1019.0 |